Location: Rancho Del Sol Observatory
(38.7214°N, 120.6350°W)
Time: 06:26:53
(UTC-08:00)

Courier 1B Rocket - Pass Details

Date: 31 January 2020
Orbit: 920 x 1202 km, 28.2° (Epoch: 29 February)

Event Time Altitude Azimuth Distance (km) Brightness Sun altitude
Rises 11:14:24 0° 255° (WSW) 4,055 8.2 32.1°
Reaches altitude 10° 11:17:31 10° 247° (WSW) 3,064 7.8 32.3°
Maximum altitude 11:24:17 36° 184° (S) 1,683 8.2 32.6°
Drops below altitude 10° 11:30:41 10° 120° (ESE) 2,889 8.2 32.9°
Sets 11:33:33 0° 112° (ESE) 3,797 8.5 33.0°
